Location: Zengebe
(1.4833°N, 32.5167°E)
Time: 22:53:57
(UTC+00:00)

Ariane H10+ - Pass Details

Date: 07 June 2020
Orbit: 358 x 35442 km, 7.4° (Epoch: 10 July)

Event Time Altitude Azimuth Distance (km) Brightness Sun altitude
Exits shadow 02:35:11 23° 277° (W) 1,386 3.9 -16.3°
Maximum altitude 02:37:36 72° 358° (N) 1,037 3.7 -15.8°
Drops below altitude 10° 02:54:48 10° 81° (E) 8,214 9.6 -11.8°
Sets 03:15:39 0° 83° (E) 15,085 11.4 -7.1°
